Location: ??????
(56.0120°N, 39.1740°E)
Time: 21:35:05
(UTC+00:00)

Cosmos 1733 Rocket - Pass Details

Date: 14 April 2026
Orbit: 597 x 620 km, 82.5° (Epoch: 16 May)

Event Time Altitude Azimuth Distance (km) Brightness Sun altitude
Exits shadow 17:43:49 - 161° (SSE) 2,107 5.3 -10.3°
Reaches altitude 10° 17:44:11 10° 160° (SSE) 1,967 5.1 -10.3°
Maximum altitude 17:48:13 38° 92° (E) 944 3.6 -10.8°
Drops below altitude 10° 17:52:18 10° 24° (NNE) 1,993 5.8 -11.2°
Sets 17:54:38 0° 17° (NNE) 2,907 6.8 -11.5°
